Retour au catalogue

AAC-AIS-SAT3

ActifScienceSSO
NORAD 58997·PAYLOAD·🇬🇧 United Kingdom

Lancé Nov 11, 2023 depuis Vandenberg Space Force Base

Loading…

Prochains Passages (prochaines 24 heures)

TLE

FraisSource: Space-Track

Époque: Sep 14, 2026, 21:22 UTC

1 58997U 23174DJ  26257.89037082  .00002688  00000-0  31962-3 0  9992
2 58997  97.6162 302.6694 0007151  37.7840 322.3876 14.85175457154462

Suivez AAC-AIS-SAT3 en temps réel avec AllMySat

Download on the App Store